Regional Weather Roundup
Issued by NWS

Home | Current Version | Previous Version | Graphics & Text | Print | Product List | Glossary On
Versions: 1 2 3 4 5 6 7 8 9 10 11 12 13 14 15 16 17 18 19 20 21 22 23 24 25 26 27
000
ASUS45 KBOI 211810
RWRID

IDAHO REGIONAL WEATHER ROUNDUP
NATIONAL WEATHER SERVICE BOISE ID
1200 PM MDT MON AUG 21 2017

NOTE: "FAIR" INDICATES FEW OR NO CLOUDS BELOW 12000 FEET
WITH NO SIGNIFICANT WEATHER AND/OR OBSTRUCTIONS TO VISIBILITY

IDZ012-014-211900-
SOUTHWEST IDAHO


CITY           SKY/WX    TMP DP  RH WIND       PRES   REMARKS
BOISE          SUNNY     71  41  33 N3        30.11S
CALDWELL       SUNNY     70  47  43 CALM      30.11S
MOUNTAIN HOME  MOSUNNY   73  36  25 NW8       30.11S
$$

IDZ016-017-211900-
SOUTHCENTRAL IDAHO


CITY           SKY/WX    TMP DP  RH WIND       PRES   REMARKS
BURLEY         SUNNY     66  43  43 NW3       30.17S
JEROME         SUNNY     62  47  57 CALM      30.18S
TWIN FALLS     SUNNY     68  41  37 W5        30.18R
$$

IDZ019>023-211900-
SOUTHEAST IDAHO


CITY           SKY/WX    TMP DP  RH WIND       PRES   REMARKS
IDAHO FALLS    SUNNY     65  37  35 SW6       30.21F
POCATELLO      SUNNY     67  33  28 W5        30.20S
REXBURG        SUNNY     62  38  40 W6        30.22R
$$

IDZ006-010-011-018-031-032-211900-
CENTRAL IDAHO MOUNTAINS


CITY           SKY/WX    TMP DP  RH WIND       PRES   REMARKS
MCCALL         SUNNY     64  36  35 CALM      30.21R
HAILEY         MOSUNNY   59  43  55 E7        30.24S
STANLEY          N/A     55  34  45 CALM      30.31R
SALMON         SUNNY     61  44  53 CALM      30.21S
CHALLIS        MOSUNNY   62  41  46 CALM      30.23S
$$

IDZ002-004-006-007-026-211900-
NORTHERN IDAHO


CITY           SKY/WX    TMP DP  RH WIND       PRES   REMARKS
LEWISTON       SUNNY     67  46  47 CALM      30.13S
LOWELL           N/A     61  47  59 CALM      30.17S
COEUR D`ALENE  SUNNY     69  48  47 NE7       30.17S
MULLAN PASS    SUNNY     58  35  42 CALM      30.31S
$$




USA.gov is the U.S. government's official web portal to all federal, state and local government web resources and services.